When you browse on this site, cookies collect data to enhance your experience and personalize the content and advertising you see.
Visit our Privacy Policy to learn more. By continuing to use the site, you agree to this use of cookies and data.
  • In Netherlands
  • List of Countries
  • For 7 days
  • Water Temperature
  • Weather Map
  • Weather Widgets
  • user-avatar
    Login

    Hourly Weather Papiernia

    Today, 20 September, Friday

    Time Temperature Precipitation Wind Pressure Humidity
    00:00 +7°C° 0 mm 2 mps 764 mmHg 78%
    01:00 +7°C° 0 mm 2 mps 764 mmHg 79%
    02:00 +7°C° 0 mm 2 mps 764 mmHg 77%
    03:00 +7°C° 0 mm 2 mps 764 mmHg 76%
    04:00 +7°C° 0 mm 2 mps 764 mmHg 75%
    05:00 +7°C° 0 mm 2 mps 764 mmHg 73%
    06:00 +8°C° 0 mm 2 mps 764 mmHg 71%
    07:00 +8°C° 0 mm 3 mps 764 mmHg 68%
    08:00 +10°C° 0 mm 3 mps 764 mmHg 61%
    09:00 +12°C° 0 mm 3 mps 764 mmHg 53%
    10:00 +14°C° 0 mm 3 mps 764 mmHg 46%
    11:00 +14°C° 0 mm 3 mps 764 mmHg 44%
    12:00 +16°C° 0 mm 3 mps 764 mmHg 42%
    13:00 +17°C° 0 mm 3 mps 763 mmHg 40%
    14:00 +16°C° 0 mm 3 mps 763 mmHg 48%
    15:00 +14°C° 0 mm 4 mps 763 mmHg 57%
    16:00 +13°C° 0 mm 4 mps 762 mmHg 65%
    17:00 +13°C° 0 mm 3 mps 762 mmHg 68%
    18:00 +12°C° 0 mm 3 mps 762 mmHg 72%
    19:00 +12°C° 0 mm 3 mps 762 mmHg 75%
    20:00 +12°C° 0 mm 4 mps 762 mmHg 78%
    21:00 +12°C° 0 mm 4 mps 762 mmHg 81%
    22:00 +12°C° 0 mm 4 mps 762 mmHg 84%
    23:00 +12°C° 0 mm 4 mps 761 mmHg 85%

    Tomorrow, 21 September, Saturday

    Time Temperature Precipitation Wind Pressure Humidity
    00:00 +12°C° 0 mm 4 mps 761 mmHg 87%
    01:00 +11°C° 0 mm 4 mps 761 mmHg 89%
    02:00 +12°C° 0 mm 4 mps 761 mmHg 88%
    03:00 +12°C° 0 mm 4 mps 761 mmHg 88%
    04:00 +12°C° 0 mm 4 mps 761 mmHg 87%
    05:00 +12°C° 0 mm 4 mps 761 mmHg 87%
    06:00 +12°C° 0 mm 4 mps 761 mmHg 86%
    07:00 +12°C° 0 mm 4 mps 761 mmHg 86%
    08:00 +13°C° 0 mm 4 mps 761 mmHg 83%
    09:00 +13°C° 0 mm 4 mps 761 mmHg 80%
    10:00 +14°C° 0 mm 4 mps 761 mmHg 77%
    11:00 +15°C° 0 mm 4 mps 761 mmHg 74%
    12:00 +15°C° 0 mm 4 mps 761 mmHg 71%
    13:00 +17°C° 0 mm 4 mps 761 mmHg 69%
    14:00 +17°C° 0 mm 4 mps 761 mmHg 68%
    15:00 +17°C° 0 mm 3 mps 761 mmHg 68%
    16:00 +17°C° 0 mm 3 mps 761 mmHg 68%
    17:00 +16°C° 0 mm 3 mps 761 mmHg 74%
    18:00 +14°C° 0 mm 2 mps 761 mmHg 80%
    19:00 +13°C° 0 mm 2 mps 761 mmHg 86%
    20:00 +13°C° 0 mm 2 mps 760 mmHg 88%
    21:00 +12°C° 0 mm 2 mps 760 mmHg 89%
    22:00 +12°C° 0 mm 1 mps 760 mmHg 91%
    23:00 +12°C° 0 mm 2 mps 760 mmHg 92%

    Day after tomorrow, 22 September, Sunday

    Time Temperature Precipitation Wind Pressure Humidity
    00:00 +10°C° 0 mm 2 mps 760 mmHg 93%
    01:00 +10°C° 0 mm 2 mps 760 mmHg 93%
    02:00 +10°C° 0 mm 2 mps 760 mmHg 93%
    03:00 +10°C° 0 mm 2 mps 760 mmHg 93%
    04:00 +10°C° 0 mm 2 mps 760 mmHg 93%
    05:00 +10°C° 0 mm 2 mps 760 mmHg 91%
    06:00 +12°C° 0 mm 2 mps 760 mmHg 88%
    07:00 +12°C° 0 mm 2 mps 759 mmHg 86%
    08:00 +15°C° 0 mm 2 mps 759 mmHg 77%
    09:00 +17°C° 0 mm 2 mps 759 mmHg 68%
    10:00 +19°C° 0 mm 2 mps 759 mmHg 59%
    11:00 +20°C° 0 mm 2 mps 759 mmHg 54%
    12:00 +21°C° 0 mm 2 mps 759 mmHg 49%
    13:00 +23°C° 0 mm 2 mps 759 mmHg 45%
    14:00 +23°C° 0 mm 2 mps 758 mmHg 45%
    15:00 +23°C° 0 mm 1 mps 758 mmHg 46%
    16:00 +23°C° 0 mm 1 mps 757 mmHg 47%
    17:00 +21°C° 0 mm 1 mps 757 mmHg 52%
    18:00 +19°C° 0 mm 1 mps 757 mmHg 58%
    19:00 +16°C° 0 mm 1 mps 757 mmHg 64%
    20:00 +16°C° 0 mm 1 mps 757 mmHg 67%
    21:00 +15°C° 0 mm 1 mps 757 mmHg 69%
    22:00 +14°C° 0 mm 1 mps 757 mmHg 72%
    23:00 +14°C° 0 mm 1 mps 756 mmHg 72%

    23 September, Monday

    Time Temperature Precipitation Wind Pressure Humidity
    00:00 +14°C° 0 mm 1 mps 756 mmHg 73%
    01:00 +13°C° 0 mm 1 mps 756 mmHg 74%
    02:00 +13°C° 0 mm 2 mps 756 mmHg 74%
    03:00 +13°C° 0 mm 2 mps 756 mmHg 75%
    04:00 +12°C° 0 mm 2 mps 755 mmHg 75%
    05:00 +13°C° 0 mm 2 mps 755 mmHg 75%
    06:00 +13°C° 0 mm 2 mps 755 mmHg 75%
    07:00 +12°C° 0 mm 3 mps 755 mmHg 75%
    08:00 +14°C° 0 mm 3 mps 754 mmHg 68%
    09:00 +17°C° 0 mm 3 mps 754 mmHg 60%
    10:00 +19°C° 0 mm 4 mps 754 mmHg 53%
    11:00 +20°C° 0 mm 4 mps 754 mmHg 49%
    12:00 +21°C° 0 mm 4 mps 754 mmHg 45%
    13:00 +22°C° 0 mm 4 mps 753 mmHg 41%
    14:00 +22°C° 0 mm 4 mps 753 mmHg 42%
    15:00 +22°C° 0 mm 4 mps 753 mmHg 44%
    16:00 +22°C° 0 mm 3 mps 753 mmHg 46%
    17:00 +20°C° 0 mm 3 mps 753 mmHg 52%
    18:00 +18°C° 0 mm 3 mps 753 mmHg 59%
    19:00 +16°C° 0 mm 2 mps 753 mmHg 65%
    20:00 +15°C° 0 mm 2 mps 753 mmHg 69%
    21:00 +15°C° 0 mm 2 mps 753 mmHg 72%
    22:00 +14°C° 0 mm 1 mps 753 mmHg 75%
    23:00 +13°C° 0 mm 1 mps 754 mmHg 78%

    24 September, Tuesday

    Time Temperature Precipitation Wind Pressure Humidity
    00:00 +13°C° 0 mm 1 mps 754 mmHg 81%
    01:00 +12°C° 0 mm 1 mps 754 mmHg 83%
    02:00 +12°C° 0 mm 1 mps 754 mmHg 85%
    03:00 +12°C° 0 mm 1 mps 754 mmHg 87%
    04:00 +11°C° 0 mm 1 mps 754 mmHg 89%
    05:00 +12°C° 0 mm 1 mps 754 mmHg 87%
    06:00 +12°C° 0 mm 1 mps 755 mmHg 85%
    07:00 +13°C° 0 mm 1 mps 755 mmHg 83%
    08:00 +15°C° 0 mm 1 mps 755 mmHg 76%
    09:00 +18°C° 0 mm 1 mps 756 mmHg 68%
    10:00 +20°C° 0 mm 1 mps 756 mmHg 60%
    11:00 +21°C° 0 mm 1 mps 756 mmHg 56%
    12:00 +22°C° 0 mm 1 mps 756 mmHg 52%
    13:00 +23°C° 0 mm 1 mps 755 mmHg 48%
    14:00 +23°C° 0 mm 1 mps 755 mmHg 48%
    15:00 +22°C° 0 mm 1 mps 755 mmHg 48%
    16:00 +22°C° 0 mm 1 mps 755 mmHg 48%
    17:00 +21°C° 0 mm 1 mps 755 mmHg 55%
    18:00 +19°C° 0 mm 1 mps 755 mmHg 61%
    19:00 +16°C° 0 mm 2 mps 755 mmHg 67%
    20:00 +16°C° 0 mm 2 mps 755 mmHg 70%
    21:00 +15°C° 0 mm 2 mps 755 mmHg 73%
    22:00 +15°C° 0 mm 2 mps 755 mmHg 75%
    23:00 +14°C° 0 mm 2 mps 755 mmHg 77%

    25 September, Wednesday

    Time Temperature Precipitation Wind Pressure Humidity
    00:00 +14°C° 0 mm 2 mps 755 mmHg 79%
    01:00 +13°C° 0 mm 3 mps 755 mmHg 81%
    02:00 +13°C° 0 mm 3 mps 754 mmHg 81%
    03:00 +13°C° 0 mm 3 mps 754 mmHg 81%
    04:00 +13°C° 0 mm 3 mps 754 mmHg 80%
    05:00 +13°C° 0.1 mm 3 mps 753 mmHg 80%
    06:00 +13°C° 0.1 mm 3 mps 753 mmHg 80%
    07:00 +13°C° 0.1 mm 3 mps 753 mmHg 80%
    08:00 +14°C° 0.1 mm 3 mps 753 mmHg 79%
    09:00 +14°C° 0.1 mm 4 mps 753 mmHg 78%
    10:00 +15°C° 0.1 mm 4 mps 753 mmHg 77%
    11:00 +17°C° 0.1 mm 4 mps 752 mmHg 74%
    12:00 +18°C° 0.1 mm 4 mps 752 mmHg 71%
    13:00 +19°C° 0.1 mm 4 mps 751 mmHg 68%
    14:00 +19°C° 0.3 mm 3 mps 751 mmHg 70%
    15:00 +18°C° 0.3 mm 3 mps 751 mmHg 73%
    16:00 +18°C° 0.3 mm 2 mps 750 mmHg 75%
    17:00 +17°C° 0.3 mm 2 mps 750 mmHg 79%
    18:00 +17°C° 0.3 mm 2 mps 750 mmHg 83%
    19:00 +16°C° 0.3 mm 2 mps 750 mmHg 87%
    20:00 +16°C° 0.5 mm 2 mps 750 mmHg 89%
    21:00 +15°C° 0.5 mm 1 mps 750 mmHg 91%
    22:00 +15°C° 0.5 mm 1 mps 750 mmHg 93%
    23:00 +15°C° 0.4 mm 1 mps 749 mmHg 94%
    Show more